Location: Fredericksburg
(30.2750°N, 98.8720°W)
Time: 20:46:38
(UTC-05:00)

PCSat - Visible Passes

Search period start: 26 June 2017 00:00
Search period end: 06 July 2017 00:00
Orbit: 784 x 796 km, 67.1° (Epoch: 26 June)

Date Brightness Start Highest point End Pass type
(mag) Time Alt. Az. Time Alt. Az. Time Alt. Az.
26 Jun 9.9 22:07:46 10° NNW 22:13:04 51° ENE 22:15:27 30° ESE visible
26 Jun 11.7 23:52:53 10° WNW 23:55:56 15° WSW 23:56:10 15° WSW visible
27 Jun 10.4 21:37:08 10° N 21:42:07 36° ENE 21:45:40 17° ESE visible
27 Jun 11.2 23:21:04 10° NW 23:25:13 23° WSW 23:26:24 21° SW visible
28 Jun 10.9 21:06:39 10° N 21:11:07 26° ENE 21:15:34 10° ESE visible
28 Jun 10.8 22:49:40 10° NW 22:54:28 33° WSW 22:56:41 24° SSW visible
29 Jun 10.3 22:18:29 10° NW 22:23:41 48° WSW 22:27:01 21° S visible
30 Jun 9.8 21:47:28 10° NNW 21:52:52 72° WSW 21:57:25 15° SSE visible
01 Jul 9.6 21:16:35 10° NNW 21:22:01 79° ENE 21:27:24 10° SSE visible
02 Jul 12.0 22:31:10 10° WNW 22:33:57 14° WSW 22:36:45 10° SW visible
03 Jul 11.7 21:59:15 10° WNW 22:03:15 21° WSW 22:07:14 10° SSW visible
04 Jul 11.2 21:27:47 10° NW 21:32:30 31° WSW 21:37:11 10° SSW visible
